Location: Chateh
(58.6667°N, 118.6000°W)
Time: 07:06:14
(UTC+00:00)

Gurwin Techsat 1B - Pass Details

Date: 02 December 2023
Orbit: 810 x 813 km, 98.9° (Epoch: 04 March)

Event Time Altitude Azimuth Distance (km) Brightness Sun altitude
Rises 11:05:32 0° 19° (NNE) 3,351 12.3 -38.8°
Reaches altitude 10° 11:07:58 10° 24° (NNE) 2,416 11.5 -38.5°
Enters shadow 11:09:48 21° 32° (NNE) 1,746 10.7 -38.3°
